QPF
0.06 0.06 0.08 0.08 0.11 0.17 0.24 0.35 0.56 0.78 0.84 0.71 0.59 0.49 0.26 0.34 0.29 0.22 0.24 0.22 0.26 0.20 0.19 0.17 0.21 0.20 0.20 0.21 0.23 0.30 0.20 0.14 0.20 0.14 0.06 0.05 0.02 0.02 0.01 0.00 0.00 0.00
0.05 0.06 0.05 0.07 0.08 0.10 0.17 0.23 0.25 0.39 0.56 0.81 0.82 0.63 0.49 0.32 0.27 0.24 0.26 0.28 0.35 0.38 0.33 0.28 0.26 0.26 0.25 0.22 0.17 0.28 0.22 0.13 0.12 0.18 0.14 0.10 0.05 0.07 0.04 0.05 0.04 0.00
0.02 0.05 0.07 0.06 0.06 0.07 0.09 0.13 0.17 0.23 0.32 0.45 0.62 0.75 0.64 0.50 0.41 0.34 0.31 0.26 0.28 0.31 0.35 0.40 0.39 0.33 0.29 0.28 0.26 0.17 0.12 0.10 0.11 0.11 0.14 0.11 0.11 0.07 0.05 0.04 0.03 0.01
0.00 0.02 0.05 0.07 0.06 0.05 0.06 0.10 0.13 0.16 0.22 0.28 0.36 0.46 0.57 0.54 0.44 0.43 0.43 0.34 0.28 0.27 0.29 0.34 0.37 0.36 0.37 0.32 0.26 0.23 0.19 0.13 0.08 0.08 0.10 0.12 0.13 0.10 0.09 0.08 0.04 0.02
0.00 0.00 0.02 0.04 0.07 0.07 0.08 0.09 0.11 0.13 0.13 0.17 0.23 0.30 0.41 0.45 0.43 0.37 0.41 0.45 0.37 0.29 0.31 0.32 0.32 0.33 0.30 0.30 0.29 0.24 0.19 0.14 0.09 0.06 0.05 0.06 0.08 0.12 0.11 0.08 0.04 0.02
0.00 0.00 0.00 0.01 0.03 0.06 0.07 0.08 0.09 0.11 0.11 0.12 0.15 0.23 0.32 0.43 0.38 0.33 0.29 0.29 0.33 0.33 0.29 0.26 0.26 0.30 0.27 0.22 0.20 0.20 0.19 0.13 0.10 0.06 0.05 0.05 0.04 0.05 0.06 0.04 0.03 0.01
0.00 0.00 0.00 0.01 0.01 0.02 0.04 0.06 0.08 0.10 0.14 0.15 0.13 0.16 0.28 0.31 0.34 0.32 0.28 0.24 0.22 0.24 0.28 0.26 0.23 0.22 0.20 0.19 0.18 0.16 0.17 0.14 0.09 0.06 0.04 0.03 0.03 0.02 0.02 0.02 0.02 0.00
0.00 0.00 0.00 0.00 0.01 0.02 0.02 0.03 0.05 0.07 0.10 0.12 0.13 0.12 0.15 0.26 0.28 0.30 0.28 0.25 0.21 0.19 0.19 0.24 0.26 0.22 0.19 0.17 0.17 0.15 0.15 0.13 0.09 0.07 0.05 0.02 0.01 0.00 0.00 0.00 0.00 0.01
0.00 0.00 0.00 0.00 0.01 0.02 0.02 0.02 0.02 0.03 0.06 0.09 0.11 0.11 0.11 0.13 0.20 0.26 0.28 0.26 0.23 0.19 0.16 0.16 0.20 0.22 0.20 0.18 0.15 0.15 0.14 0.12 0.09 0.07 0.05 0.03 0.01 0.00 0.00 0.00 0.00 0.00
0.00 0.00 0.00 0.00 0.01 0.01 0.01 0.15 0.01 0.02 0.03 0.05 0.07 0.10 0.10 0.10 0.13 0.17 0.22 0.28 0.26 0.18 0.15 0.13 0.14 0.16 0.19 0.17 0.14 0.12 0.12 0.11 0.08 0.04 0.03 0.03 0.08 0.04 0.02 0.01 0.00 0.00
0.00 0.00 0.00 0.00 0.00 0.01 0.01 0.08 0.09 0.05 0.01 0.02 0.03 0.05 0.08 0.10 0.11 0.12 0.15 0.18 0.19 0.16 0.13 0.10 0.09 0.10 0.12 0.13 0.12 0.11 0.16 0.10 0.07 0.05 0.04 0.02 0.02 0.03 0.03 0.02 0.02 0.01
0.00 0.00 0.00 0.00 0.00 0.00 0.01 0.02 0.03 0.28 0.02 0.01 0.01 0.02 0.03 0.06 0.08 0.10 0.12 0.12 0.12 0.11 0.09 0.08 0.07 0.06 0.07 0.11 0.09 0.12 0.08 0.07 0.04 0.04 0.10 0.07 0.04 0.03 0.01 0.00 0.00 0.00
0.00 0.00 0.00 0.00 0.00 0.00 0.01 0.02 0.03 0.08 0.20 0.02 0.01 0.01 0.02 0.03 0.04 0.06 0.09 0.11 0.11 0.08 0.06 0.05 0.05 0.05 0.04 0.06 0.07 0.17 0.10 0.04 0.03 0.03 0.03 0.03 0.03 0.02 0.01 0.00 0.00 0.00
0.00 0.00 0.00 0.00 0.00 0.00 0.00 0.03 0.07 0.06 0.03 0.18 0.31 0.03 0.03 0.03 0.02 0.02 0.04 0.06 0.09 0.09 0.06 0.05 0.04 0.04 0.05 0.04 0.03 0.03 0.08 0.06 0.03 0.02 0.04 0.03 0.03 0.01 0.03 0.00 0.00 0.00
0.00 0.00 0.00 0.00 0.00 0.00 0.01 0.03 0.08 0.08 0.07 0.17 0.10 0.26 0.15 0.06 0.19 0.03 0.02 0.03 0.05 0.07 0.07 0.06 0.04 0.03 0.02 0.03 0.02 0.01 0.05 0.05 0.07 0.07 0.01 0.01 0.00 0.00 0.00 0.00 0.00 0.00
0.00 0.00 0.00 0.00 0.00 0.01 0.01 0.03 0.06 0.10 0.14 0.05 0.21 0.20 0.03 0.10 0.03 0.02 0.02 0.01 0.02 0.04 0.04 0.04 0.04 0.03 0.02 0.02 0.01 0.01 0.01 0.01 0.04 0.04 0.01 0.00 0.00 0.00 0.00 0.00 0.00 0.00
0.00 0.00 0.00 0.01 0.01 0.02 0.03 0.04 0.06 0.07 0.08 0.12 0.09 0.24 0.38 0.03 0.04 0.07 0.02 0.02 0.02 0.03 0.03 0.02 0.02 0.02 0.02 0.02 0.02 0.01 0.02 0.02 0.01 0.00 0.00 0.00 0.00 0.00 0.00 0.00 0.00 0.00
0.00 0.00 0.01 0.01 0.03 0.03 0.03 0.03 0.04 0.06 0.07 0.11 0.20 0.08 0.22 0.11 0.05 0.03 0.03 0.02 0.02 0.02 0.02 0.02 0.01 0.01 0.01 0.01 0.02 0.02 0.02 0.02 0.02 0.01 0.00 0.00 0.00 0.00 0.00 0.00 0.00 0.00
0.00 0.01 0.01 0.01 0.03 0.05 0.04 0.03 0.04 0.05 0.07 0.15 0.16 0.09 0.13 0.90 0.08 0.03 0.03 0.03 0.02 0.01 0.01 0.01 0.01 0.01 0.01 0.01 0.01 0.01 0.02 0.02 0.01 0.00 0.00 0.00 0.00 0.00 0.00 0.00 0.00 0.00
0.03 0.01 0.01 0.01 0.03 0.05 0.05 0.05 0.05 0.06 0.13 0.07 0.12 0.18 0.10 0.09 0.18 0.06 0.03 0.03 0.04 0.03 0.02 0.01 0.02 0.02 0.01 0.01 0.00 0.01 0.01 0.01 0.01 0.00 0.00 0.00 0.00 0.00 0.00 0.00 0.00 0.00
0.01 0.09 0.02 0.04 0.06 0.06 0.06 0.05 0.05 0.08 0.10 0.09 0.15 0.14 0.23 0.06 0.29 0.12 0.04 0.03 0.03 0.05 0.06 0.04 0.03 0.02 0.02 0.01 0.01 0.01 0.01 0.00 0.00 0.00 0.00 0.00 0.00 0.00 0.00 0.00 0.00 0.00
0.01 0.01 0.06 0.06 0.05 0.10 0.06 0.06 0.05 0.05 0.05 0.07 0.06 0.08 0.15 0.30 0.12 0.08 0.14 0.05 0.03 0.03 0.04 0.06 0.05 0.04 0.02 0.02 0.02 0.01 0.00 0.00 0.00 0.00 0.00 0.00 0.00 0.00 0.00 0.00 0.00 0.00
0.00 0.03 0.05 0.05 0.05 0.05 0.04 0.08 0.05 0.04 0.05 0.06 0.07 0.11 0.14 0.07 0.20 0.05 0.08 0.08 0.05 0.03 0.03 0.03 0.05 0.05 0.04 0.02 0.01 0.01 0.01 0.00 0.00 0.00 0.00 0.00 0.00 0.00 0.00 0.00 0.00 0.00
0.06 0.07 0.07 0.12 0.15 0.06 0.12 0.04 0.08 0.07 0.05 0.05 0.05 0.05 0.05 0.11 0.13 0.14 0.07 0.06 0.04 0.04 0.03 0.03 0.04 0.07 0.04 0.04 0.02 0.00 0.01 0.01 0.00 0.00 0.00 0.00 0.00 0.00 0.00 0.00 0.00 0.00
0.01 0.05 0.11 0.06 0.10 0.12 0.13 0.18 0.08 0.09 0.09 0.07 0.06 0.07 0.11 0.12 0.07 0.13 0.12 0.03 0.07 0.06 0.07 0.07 0.04 0.06 0.07 0.10 0.04 0.03 0.01 0.00 0.00 0.00 0.00 0.00 0.00 0.00 0.00 0.00 0.00 0.00
0.00 0.01 0.03 0.13 0.09 0.11 0.16 0.13 0.10 0.17 0.10 0.06 0.11 0.07 0.12 0.05 0.12 0.09 0.07 0.09 0.05 0.04 0.05 0.05 0.04 0.03 0.02 0.02 0.02 0.03 0.07 0.02 0.00 0.00 0.00 0.00 0.00 0.00 0.00 0.00 0.00 0.00
MSLP
1011.29 1011.37 1011.65 1012.01 1012.21 1012.37 1012.61 1012.73 1012.85 1012.93 1012.21 1012.21 1012.41 1012.97 1013.73 1014.57 1015.53 1015.97 1016.33 1016.81 1017.09 1017.45 1017.97 1018.33 1018.61 1018.93 1019.29 1019.61 1019.85 1020.09 1020.53 1020.85 1020.93 1021.13 1021.37 1021.57 1021.93 1022.37 1022.81 1023.17 1023.49 1023.65
1010.93 1011.21 1011.45 1011.77 1012.05 1012.25 1012.45 1012.65 1012.77 1012.81 1013.09 1012.73 1012.25 1012.25 1013.01 1014.17 1015.05 1015.45 1016.17 1016.61 1016.89 1017.21 1017.69 1018.25 1018.57 1018.77 1019.09 1019.45 1019.73 1019.97 1020.45 1020.85 1021.17 1021.33 1021.41 1021.73 1022.13 1022.45 1022.85 1023.21 1023.49 1023.93
1010.49 1010.93 1011.25 1011.41 1011.69 1012.01 1012.29 1012.53 1012.69 1012.81 1012.93 1013.33 1013.49 1012.89 1013.05 1013.69 1014.45 1015.17 1015.61 1016.29 1016.89 1017.21 1017.57 1018.05 1018.49 1018.77 1019.05 1019.37 1019.65 1019.93 1020.21 1020.61 1021.05 1021.33 1021.61 1021.81 1022.09 1022.53 1023.01 1023.29 1023.65 1024.01
1009.93 1010.21 1010.69 1011.05 1011.37 1011.73 1012.17 1012.45 1012.65 1012.81 1013.05 1013.25 1013.69 1014.09 1013.25 1013.37 1014.17 1014.85 1015.41 1016.01 1016.61 1017.21 1017.65 1017.93 1018.33 1018.69 1018.97 1019.33 1019.69 1020.01 1020.21 1020.57 1021.01 1021.37 1021.65 1022.09 1022.33 1022.49 1022.97 1023.25 1023.65 1024.05
1009.41 1009.77 1010.13 1010.53 1010.89 1011.29 1011.77 1012.21 1012.49 1012.73 1012.89 1013.05 1013.57 1014.09 1014.21 1013.65 1013.77 1014.29 1015.01 1015.77 1016.45 1017.13 1017.53 1017.85 1018.29 1018.69 1018.93 1019.25 1019.53 1019.89 1020.33 1020.69 1021.09 1021.41 1021.69 1022.05 1022.41 1022.61 1022.97 1023.25 1023.61 1023.93
1009.33 1009.33 1009.53 1009.93 1010.41 1010.89 1011.33 1011.65 1012.17 1012.61 1012.89 1013.21 1013.37 1013.89 1014.17 1013.85 1013.41 1013.69 1014.45 1015.33 1016.17 1016.81 1017.33 1017.81 1018.13 1018.53 1018.89 1019.13 1019.49 1019.81 1020.17 1020.65 1021.09 1021.29 1021.65 1022.05 1022.53 1022.77 1022.97 1023.25 1023.57 1023.93
1009.21 1009.21 1009.29 1009.49 1009.93 1010.29 1010.73 1011.21 1011.65 1012.17 1012.65 1012.93 1013.33 1013.69 1013.97 1013.97 1013.57 1013.57 1013.97 1014.69 1015.53 1016.33 1016.89 1017.49 1017.89 1018.29 1018.65 1019.01 1019.37 1019.77 1020.09 1020.45 1020.93 1021.29 1021.61 1022.17 1022.57 1022.93 1023.13 1023.17 1023.33 1023.69
1008.85 1009.17 1009.33 1009.41 1009.57 1009.85 1010.17 1010.65 1011.13 1011.57 1012.05 1012.77 1013.09 1013.45 1013.73 1013.89 1013.85 1013.61 1013.89 1014.37 1015.17 1015.93 1016.61 1017.25 1017.73 1017.97 1018.37 1018.85 1019.25 1019.61 1019.89 1020.21 1020.65 1021.05 1021.45 1022.05 1022.45 1022.81 1023.09 1023.21 1023.25 1023.57
1008.81 1008.93 1009.09 1009.37 1009.49 1009.57 1009.77 1010.05 1010.53 1011.09 1011.57 1012.17 1012.81 1013.21 1013.57 1013.77 1013.97 1014.05 1013.73 1014.01 1014.77 1015.57 1016.25 1017.01 1017.53 1017.85 1018.13 1018.57 1019.05 1019.21 1019.41 1019.89 1020.41 1020.77 1021.13 1021.61 1022.01 1022.45 1022.85 1023.13 1023.33 1023.53
1008.45 1008.65 1008.85 1009.05 1009.29 1009.41 1009.45 1009.53 1009.85 1010.41 1011.09 1011.65 1012.33 1012.89 1013.29 1013.73 1014.05 1014.29 1014.41 1014.09 1014.37 1015.21 1015.97 1016.69 1017.33 1017.77 1018.09 1018.33 1018.57 1018.77 1019.01 1019.57 1020.21 1020.73 1021.17 1021.49 1021.77 1022.17 1022.61 1022.89 1023.01 1023.41
1007.89 1008.17 1008.53 1008.81 1008.97 1009.21 1009.45 1009.65 1009.89 1010.29 1010.69 1011.17 1011.85 1012.57 1013.05 1013.53 1014.05 1014.45 1014.61 1014.65 1014.45 1014.69 1015.53 1016.29 1016.77 1017.25 1017.73 1018.05 1018.21 1018.45 1018.89 1019.41 1019.97 1020.49 1021.01 1021.41 1021.69 1022.05 1022.41 1022.69 1022.93 1023.09
1007.49 1007.85 1008.05 1008.33 1008.65 1008.93 1009.29 1009.69 1009.85 1009.93 1010.45 1010.85 1011.33 1012.05 1012.81 1013.25 1013.69 1014.21 1014.49 1014.53 1014.69 1014.89 1015.09 1015.65 1016.29 1016.81 1017.17 1017.57 1017.89 1018.17 1018.73 1019.25 1019.81 1020.29 1020.73 1021.09 1021.45 1021.77 1022.05 1022.33 1022.61 1022.93
1007.25 1007.49 1007.77 1008.05 1008.37 1008.73 1009.17 1009.61 1009.93 1009.97 1009.97 1010.41 1010.93 1011.61 1012.29 1012.97 1013.49 1013.85 1014.29 1014.53 1014.73 1015.05 1015.41 1015.61 1015.97 1016.41 1016.85 1017.33 1017.81 1018.13 1018.41 1018.93 1019.53 1020.05 1020.49 1020.93 1021.29 1021.61 1021.81 1022.05 1022.29 1022.65
1007.05 1007.41 1007.73 1008.05 1008.33 1008.73 1009.09 1009.49 1009.89 1010.21 1010.41 1010.61 1010.97 1011.37 1011.89 1012.41 1012.85 1013.29 1013.81 1014.29 1014.65 1014.97 1015.29 1015.69 1016.05 1016.37 1016.69 1017.05 1017.49 1017.93 1018.37 1018.77 1019.17 1019.69 1020.25 1020.73 1021.13 1021.45 1021.65 1021.85 1022.13 1022.49
1007.21 1007.53 1007.73 1007.97 1008.33 1008.73 1009.05 1009.37 1009.73 1010.17 1010.53 1010.61 1010.65 1011.05 1011.65 1012.05 1012.61 1013.09 1013.53 1013.97 1014.45 1014.89 1015.25 1015.65 1015.93 1016.09 1016.33 1016.65 1017.09 1017.65 1018.09 1018.45 1018.81 1019.29 1019.85 1020.41 1020.93 1021.25 1021.49 1021.77 1022.09 1022.37
1007.13 1007.45 1007.69 1007.97 1008.29 1008.61 1008.93 1009.25 1009.61 1010.05 1010.49 1010.81 1010.97 1011.09 1011.53 1012.01 1012.49 1013.01 1013.37 1013.57 1014.01 1014.57 1015.05 1015.49 1015.89 1016.13 1016.25 1016.37 1016.69 1017.09 1017.65 1018.17 1018.77 1019.21 1019.49 1019.97 1020.45 1020.97 1021.45 1021.77 1022.01 1022.25
1007.05 1007.33 1007.61 1007.93 1008.17 1008.53 1008.97 1009.25 1009.57 1009.93 1010.29 1010.69 1011.09 1011.33 1011.53 1011.93 1012.25 1012.69 1013.13 1013.45 1013.73 1014.09 1014.65 1015.13 1015.53 1015.97 1016.29 1016.37 1016.49 1016.81 1017.29 1017.89 1018.33 1018.81 1019.29 1019.73 1020.05 1020.49 1021.09 1021.61 1021.97 1022.25
1006.97 1007.25 1007.53 1007.81 1008.13 1008.53 1008.93 1009.17 1009.45 1009.81 1010.17 1010.53 1010.93 1011.33 1011.53 1011.77 1012.21 1012.45 1012.81 1013.29 1013.69 1014.01 1014.29 1014.65 1015.13 1015.61 1016.09 1016.29 1016.45 1016.69 1017.05 1017.57 1018.13 1018.57 1019.01 1019.41 1019.85 1020.29 1020.77 1021.21 1021.69 1022.21
1006.93 1007.17 1007.37 1007.65 1008.01 1008.41 1008.85 1009.25 1009.49 1009.77 1010.09 1010.41 1010.73 1011.05 1011.45 1011.61 1011.93 1012.33 1012.69 1013.09 1013.45 1013.73 1014.09 1014.41 1014.81 1015.25 1015.69 1015.97 1016.21 1016.53 1016.97 1017.45 1017.97 1018.37 1018.77 1019.13 1019.53 1019.93 1020.37 1020.85 1021.45 1022.05
1006.93 1007.13 1007.33 1007.65 1008.05 1008.45 1008.81 1009.13 1009.45 1009.65 1009.93 1010.29 1010.69 1011.09 1011.37 1011.73 1011.93 1012.45 1012.77 1013.01 1013.25 1013.57 1013.97 1014.29 1014.61 1014.93 1015.29 1015.65 1015.97 1016.33 1016.77 1017.25 1017.81 1018.25 1018.61 1018.97 1019.33 1019.65 1020.05 1020.53 1021.05 1021.61
1006.85 1007.13 1007.33 1007.69 1008.13 1008.41 1008.69 1009.01 1009.37 1009.73 1010.05 1010.37 1010.65 1010.89 1011.09 1011.33 1011.61 1012.05 1012.41 1012.73 1013.17 1013.57 1013.89 1014.17 1014.41 1014.65 1014.93 1015.29 1015.69 1016.09 1016.57 1017.09 1017.65 1018.09 1018.53 1018.93 1019.29 1019.57 1019.85 1020.25 1020.73 1021.29
1006.77 1007.05 1007.33 1007.73 1008.13 1008.45 1008.65 1008.93 1009.25 1009.57 1009.93 1010.37 1010.69 1011.05 1011.33 1011.57 1011.93 1012.05 1012.37 1012.77 1013.09 1013.41 1013.81 1014.09 1014.29 1014.37 1014.65 1015.05 1015.41 1015.85 1016.33 1016.97 1017.49 1017.89 1018.41 1018.85 1019.25 1019.57 1019.85 1020.17 1020.53 1020.97
1006.61 1006.93 1007.37 1007.73 1008.05 1008.37 1008.61 1008.81 1009.13 1009.57 1009.97 1010.33 1010.73 1011.05 1011.25 1011.45 1011.53 1011.61 1011.81 1012.29 1012.85 1013.25 1013.57 1013.93 1014.21 1014.21 1014.45 1014.81 1015.21 1015.61 1016.13 1016.81 1017.33 1017.81 1018.33 1018.73 1019.09 1019.45 1019.81 1020.09 1020.37 1020.77
1006.61 1006.81 1007.17 1007.61 1007.89 1008.09 1008.33 1008.69 1008.97 1009.37 1009.77 1010.17 1010.45 1010.81 1011.17 1011.33 1011.53 1011.73 1011.89 1012.21 1012.61 1012.93 1013.21 1013.57 1013.93 1014.05 1014.21 1014.49 1014.89 1015.25 1015.73 1016.29 1016.85 1017.41 1018.05 1018.49 1018.97 1019.37 1019.61 1019.93 1020.21 1020.57
1006.57 1006.77 1007.05 1007.41 1007.81 1008.05 1008.25 1008.57 1008.81 1009.09 1009.49 1009.93 1010.25 1010.57 1010.89 1011.25 1011.53 1011.77 1011.97 1012.21 1012.37 1012.61 1012.97 1013.37 1013.69 1013.93 1014.09 1014.29 1014.69 1015.09 1015.61 1016.17 1016.69 1017.17 1017.73 1018.25 1018.69 1019.13 1019.45 1019.73 1020.13 1020.53
1006.49 1006.69 1006.93 1007.25 1007.57 1007.93 1008.25 1008.49 1008.77 1009.13 1009.45 1009.77 1010.13 1010.41 1010.69 1011.01 1011.33 1011.65 1011.81 1011.97 1012.21 1012.61 1012.93 1013.09 1013.41 1013.61 1013.81 1014.09 1014.45 1014.85 1015.33 1015.85 1016.37 1016.77 1017.25 1017.73 1018.21 1018.65 1019.17 1019.57 1019.89 1020.33
Thickness
5559 5559 5558 5557 5557 5558 5558 5559 5563 5568 5574 5578 5578 5577 5574 5570 5566 5564 5564 5564 5565 5565 5564 5565 5565 5567 5568 5568 5569 5569 5568 5567 5566 5567 5566 5567 5566 5565 5563 5562 5561 5560
5554 5555 5554 5553 5553 5553 5553 5553 5555 5559 5562 5566 5572 5576 5574 5567 5563 5562 5560 5558 5559 5559 5560 5560 5560 5561 5563 5564 5565 5566 5565 5561 5560 5562 5561 5561 5561 5560 5558 5558 5556 5554
5550 5550 5550 5550 5549 5548 5547 5546 5548 5551 5553 5555 5559 5565 5568 5566 5562 5559 5557 5555 5554 5553 5555 5555 5555 5556 5558 5559 5560 5561 5561 5558 5556 5556 5556 5556 5556 5555 5554 5553 5551 5550
5546 5546 5545 5545 5544 5543 5541 5540 5541 5544 5546 5547 5548 5552 5559 5562 5560 5556 5553 5552 5550 5548 5549 5549 5550 5552 5553 5554 5555 5555 5555 5553 5550 5550 5550 5550 5550 5551 5550 5550 5547 5545
5539 5540 5540 5540 5540 5538 5536 5536 5536 5536 5538 5540 5540 5542 5548 5555 5557 5555 5551 5548 5546 5544 5544 5544 5544 5546 5547 5548 5548 5549 5549 5546 5544 5545 5545 5545 5545 5545 5546 5545 5543 5540
5528 5532 5534 5534 5534 5533 5532 5531 5531 5530 5530 5532 5534 5536 5540 5547 5553 5554 5551 5547 5544 5541 5539 5540 5540 5540 5540 5542 5542 5543 5543 5541 5540 5540 5540 5540 5540 5539 5540 5540 5539 5537
5517 5520 5523 5526 5527 5527 5527 5527 5526 5525 5525 5525 5528 5530 5533 5539 5546 5551 5549 5546 5543 5540 5537 5535 5535 5536 5536 5537 5537 5537 5537 5535 5535 5536 5535 5535 5534 5533 5534 5535 5535 5533
5506 5506 5509 5513 5516 5519 5521 5521 5521 5521 5521 5520 5521 5524 5527 5531 5537 5543 5545 5543 5540 5537 5535 5531 5531 5532 5533 5533 5532 5533 5533 5532 5532 5534 5532 5530 5529 5528 5528 5529 5530 5529
5494 5494 5495 5498 5503 5509 5513 5515 5516 5516 5516 5515 5515 5517 5521 5524 5528 5533 5538 5540 5537 5533 5531 5528 5526 5527 5530 5530 5529 5530 5532 5531 5530 5530 5528 5526 5526 5525 5524 5524 5524 5524
5484 5484 5483 5485 5490 5496 5502 5507 5510 5509 5510 5511 5509 5510 5514 5518 5519 5523 5527 5532 5534 5532 5528 5525 5524 5524 5525 5525 5526 5528 5530 5530 5526 5524 5523 5523 5522 5521 5520 5520 5521 5521
5476 5474 5473 5474 5477 5483 5489 5494 5498 5501 5502 5504 5504 5503 5506 5510 5512 5514 5517 5522 5528 5529 5526 5523 5522 5522 5521 5522 5524 5527 5527 5525 5521 5519 5518 5518 5517 5517 5516 5516 5517 5518
5463 5463 5464 5465 5467 5470 5474 5479 5486 5493 5496 5495 5497 5498 5499 5503 5506 5508 5511 5515 5519 5523 5524 5522 5520 5519 5519 5519 5522 5524 5522 5519 5517 5515 5514 5514 5514 5515 5515 5515 5515 5515
5450 5450 5452 5453 5455 5458 5461 5465 5471 5480 5488 5490 5491 5492 5492 5496 5501 5503 5507 5510 5513 5517 5519 5518 5516 5516 5516 5517 5518 5519 5518 5516 5513 5512 5511 5511 5512 5512 5512 5513 5513 5512
5438 5438 5439 5440 5442 5446 5449 5454 5458 5464 5474 5481 5484 5486 5488 5492 5497 5499 5502 5505 5508 5512 5515 5514 5513 5513 5513 5513 5513 5513 5513 5513 5512 5511 5509 5508 5508 5509 5509 5510 5510 5510
5427 5426 5427 5428 5431 5434 5438 5444 5448 5452 5459 5467 5475 5481 5483 5485 5490 5491 5494 5500 5504 5507 5510 5511 5510 5511 5511 5510 5509 5508 5509 5509 5509 5509 5508 5506 5505 5505 5505 5506 5506 5507
5419 5417 5417 5418 5420 5425 5429 5434 5439 5443 5448 5454 5465 5473 5475 5477 5482 5484 5486 5493 5500 5504 5506 5506 5506 5507 5509 5510 5509 5508 5508 5507 5505 5505 5506 5506 5504 5504 5503 5502 5502 5502
5413 5410 5408 5409 5411 5415 5419 5424 5429 5434 5439 5445 5453 5461 5466 5471 5476 5479 5481 5486 5494 5499 5502 5502 5502 5501 5503 5507 5509 5509 5508 5507 5505 5505 5504 5504 5504 5502 5501 5499 5499 5498
5407 5404 5402 5401 5404 5407 5410 5415 5421 5426 5431 5437 5444 5451 5459 5466 5470 5474 5477 5480 5485 5493 5496 5498 5497 5497 5498 5502 5505 5507 5507 5505 5504 5503 5503 5502 5502 5501 5499 5497 5496 5494
5400 5398 5396 5395 5397 5399 5403 5408 5413 5419 5426 5432 5438 5444 5452 5460 5464 5467 5471 5474 5479 5486 5490 5491 5491 5492 5494 5497 5500 5503 5503 5502 5501 5500 5500 5500 5499 5499 5497 5496 5494 5490
5395 5392 5390 5388 5389 5392 5397 5402 5407 5414 5420 5426 5432 5438 5444 5453 5459 5462 5466 5470 5474 5478 5482 5485 5486 5488 5491 5494 5496 5499 5500 5499 5497 5496 5496 5496 5496 5496 5496 5493 5491 5489
5392 5387 5384 5383 5384 5387 5393 5398 5402 5409 5415 5420 5426 5433 5440 5448 5454 5459 5462 5465 5469 5472 5475 5478 5482 5485 5489 5491 5492 5495 5495 5494 5494 5493 5493 5492 5492 5492 5492 5491 5489 5487
5390 5384 5381 5380 5380 5383 5390 5395 5400 5405 5411 5416 5422 5427 5433 5440 5448 5454 5458 5460 5464 5467 5469 5473 5477 5482 5486 5487 5489 5490 5491 5490 5490 5489 5489 5488 5488 5488 5487 5487 5486 5485
5391 5385 5380 5378 5379 5382 5387 5393 5398 5403 5408 5413 5418 5423 5429 5436 5443 5451 5456 5458 5460 5462 5466 5469 5473 5478 5482 5484 5485 5487 5488 5487 5487 5487 5486 5485 5484 5483 5483 5483 5483 5482
5393 5387 5382 5380 5380 5383 5387 5391 5396 5401 5406 5410 5415 5421 5426 5432 5438 5446 5451 5454 5456 5460 5464 5467 5470 5475 5479 5481 5482 5484 5484 5484 5484 5483 5481 5481 5479 5479 5479 5480 5479 5478
5395 5391 5387 5383 5383 5384 5387 5391 5394 5399 5403 5407 5411 5417 5423 5428 5435 5440 5446 5450 5454 5457 5461 5464 5467 5472 5475 5478 5479 5480 5481 5481 5480 5480 5479 5477 5476 5475 5476 5476 5475 5474
5397 5395 5392 5389 5387 5387 5388 5391 5394 5397 5400 5403 5408 5413 5419 5425 5431 5437 5442 5446 5449 5453 5457 5460 5465 5469 5472 5475 5476 5477 5478 5478 5477 5478 5477 5475 5474 5474 5473 5473 5471 5470